Temp
18 18 17 17 17 16 16 16 16 17 16 16 16 15 15 15 15 15 15 15 15 15 15 15 16 16 16 16 16 15 15 15 15 15 14 14 14 15 15 14 13 14 14
17 18 17 17 16 16 16 16 16 16 16 16 15 15 15 15 15 15 15 15 15 15 16 15 15 15 15 15 15 15 15 15 15 14 13 13 13 14 15 14 14 14 13
17 17 17 16 16 16 16 16 16 16 16 15 15 15 15 14 14 15 15 15 15 15 15 15 15 15 15 15 15 15 15 15 15 14 13 12 12 13 14 14 13 13 13
17 17 16 15 15 16 16 16 15 15 15 15 14 15 14 14 15 15 15 15 15 15 15 15 15 15 14 14 14 14 15 15 15 15 13 12 12 13 13 13 13 13 13
14 16 16 15 15 15 15 15 15 15 15 15 15 15 14 15 15 15 15 15 15 15 15 15 14 14 14 14 14 14 14 15 15 15 14 14 13 13 13 13 13 13 13
14 15 15 15 15 15 15 15 15 14 15 15 15 15 15 15 15 15 15 14 14 14 14 14 14 14 14 14 14 14 14 15 15 14 14 14 14 13 13 12 12 13 13
15 14 15 14 14 14 15 14 14 15 15 15 15 15 15 14 14 14 14 14 14 14 14 14 14 14 14 14 14 14 14 14 14 14 14 14 13 13 13 12 12 12 12
13 13 14 14 14 14 14 14 14 14 14 14 15 14 14 14 14 14 14 14 14 14 14 14 13 13 13 13 13 14 14 13 14 14 13 13 13 12 12 12 12 12 12
13 14 14 14 14 14 14 14 14 14 14 15 15 14 14 14 14 14 14 14 13 13 13 13 13 13 13 13 13 13 13 13 13 13 13 13 13 12 12 12 12 12 12
14 14 15 14 14 14 14 14 14 14 14 14 14 13 13 13 13 14 13 13 13 13 13 13 13 13 13 12 12 12 13 12 13 13 12 12 12 12 12 11 11 12 11
13 14 14 14 14 15 14 14 14 14 14 14 13 13 13 13 12 13 13 13 13 13 13 13 12 12 12 12 12 12 12 12 12 12 12 12 12 11 11 11 11 11 11
14 14 13 13 14 14 14 14 13 13 13 13 13 13 13 12 12 13 13 12 13 13 12 12 12 12 11 11 11 11 11 11 11 11 11 11 11 10 10 10 10 10 11
14 14 13 13 13 13 13 13 13 12 12 12 13 12 12 13 12 13 12 12 12 12 12 11 11 11 11 11 10 10 10 10 10 10 10 10 10 10 9 9 9 10 10
14 13 13 13 13 13 13 13 13 13 13 13 12 12 13 13 13 13 12 12 12 12 11 11 11 10 10 10 10 10 9 9 9 9 9 9 9 9 8 8 8 9 9
14 13 14 13 13 14 13 13 13 13 13 12 12 12 13 12 12 12 12 12 11 11 11 11 10 10 10 10 9 9 9 9 9 9 9 8 8 8 8 7 7 7 7
15 13 13 13 13 13 13 13 13 13 12 13 13 13 12 12 12 11 11 11 11 11 11 10 10 9 9 9 9 9 9 9 8 8 8 8 7 7 7 6 6 5 6
15 13 13 12 12 13 13 13 13 13 13 13 13 13 13 12 12 12 11 12 11 10 10 9 9 9 8 8 8 8 8 8 8 8 8 8 7 7 6 6 5 4 4
15 13 13 12 12 12 13 13 13 14 14 14 12 12 12 11 11 11 11 11 10 9 8 8 8 8 7 7 6 7 7 7 7 7 7 7 7 6 5 5 4 4 4
15 14 13 12 12 12 13 13 14 13 14 13 13 12 11 11 11 10 10 10 9 8 8 7 7 6 6 5 6 6 6 6 6 6 6 6 6 6 5 4 4 3 3
15 14 12 12 11 12 13 13 12 12 12 13 12 11 12 11 10 8 8 8 7 7 6 6 5 5 5 5 5 5 5 5 5 6 6 6 6 5 5 4 3 3 3
15 14 13 12 11 12 12 11 12 12 12 11 11 11 10 8 9 8 7 7 7 6 6 5 5 4 4 4 4 4 4 4 5 5 5 5 4 4 4 3 3 2 2
15 14 13 11 12 12 11 10 11 11 11 10 9 10 8 8 8 7 7 7 6 6 5 5 5 4 4 4 4 3 3 3 4 4 4 3 3 3 2 2 2 2 1
14 13 12 11 11 12 12 11 11 11 10 10 9 9 8 8 7 7 6 6 6 5 5 4 4 4 4 3 3 3 2 2 1 2 2 3 2 2 1 1 1 1 1
13 12 12 12 12 12 12 12 11 11 11 10 10 9 9 8 7 7 6 6 5 4 4 4 4 3 3 2 2 2 2 1 1 0 1 1 1 1 1 1 0 0 0
12 13 12 13 13 13 12 12 11 11 11 11 10 9 8 8 7 6 6 5 5 4 4 3 3 3 2 2 2 1 1 0 1 -0 -1 -1 -0 -0 -0 -0 -0 -0 -0
13 13 13 13 13 12 12 12 11 11 11 10 9 8 8 8 7 7 6 5 5 4 3 3 3 2 2 2 1 1 0 -0 -1 -1 -1 -1 -2 -1 -1 -1 -1 -1 -1
Height
1516 1522 1526 1529 1532 1535 1539 1542 1544 1546 1549 1551 1552 1556 1557 1558 1559 1559 1559 1559 1560 1560 1560 1561 1560 1561 1561 1561 1562 1562 1563 1563 1563 1563 1561 1561 1560 1560 1559 1559 1559 1558 1557
1515 1521 1526 1530 1533 1537 1541 1543 1546 1547 1551 1552 1555 1557 1558 1559 1560 1561 1560 1561 1562 1562 1562 1564 1564 1564 1564 1564 1565 1565 1565 1564 1563 1563 1563 1561 1562 1562 1561 1560 1560 1559 1559
1517 1522 1527 1531 1535 1539 1543 1545 1548 1549 1552 1555 1557 1559 1560 1561 1561 1562 1562 1563 1563 1565 1565 1565 1565 1566 1565 1565 1565 1566 1566 1566 1565 1566 1564 1563 1561 1562 1562 1561 1561 1559 1559
1519 1521 1528 1533 1536 1539 1543 1546 1549 1550 1554 1557 1559 1561 1561 1562 1563 1564 1565 1565 1565 1566 1567 1566 1567 1567 1567 1568 1568 1568 1568 1567 1568 1568 1565 1565 1563 1562 1563 1563 1562 1560 1559
1522 1522 1529 1534 1537 1541 1543 1547 1550 1553 1556 1558 1559 1562 1563 1564 1565 1567 1567 1567 1566 1567 1567 1567 1568 1569 1570 1571 1570 1570 1570 1570 1570 1569 1567 1566 1566 1565 1564 1563 1562 1560 1559
1522 1526 1531 1535 1538 1543 1542 1548 1552 1555 1556 1559 1560 1562 1564 1566 1567 1569 1569 1569 1569 1570 1570 1570 1571 1571 1571 1572 1572 1572 1571 1572 1572 1570 1568 1568 1567 1565 1564 1564 1562 1561 1560
1523 1529 1532 1540 1540 1543 1546 1549 1552 1555 1558 1560 1562 1564 1565 1567 1569 1571 1570 1571 1571 1570 1572 1573 1573 1573 1572 1574 1574 1574 1574 1572 1573 1572 1571 1568 1567 1567 1565 1563 1562 1561 1560
1522 1527 1533 1538 1541 1545 1548 1551 1553 1555 1558 1561 1563 1566 1567 1568 1570 1571 1572 1572 1572 1572 1573 1575 1577 1575 1575 1575 1576 1575 1574 1575 1575 1575 1571 1569 1568 1568 1566 1564 1562 1561 1560
1529 1532 1537 1539 1543 1547 1551 1552 1555 1556 1558 1562 1564 1567 1569 1571 1570 1572 1574 1575 1575 1574 1575 1576 1577 1577 1578 1576 1577 1577 1575 1575 1575 1575 1572 1569 1568 1567 1566 1564 1562 1561 1559
1530 1533 1537 1542 1544 1546 1551 1554 1556 1558 1561 1563 1565 1568 1571 1571 1572 1573 1575 1575 1576 1577 1576 1577 1577 1578 1577 1577 1577 1578 1576 1574 1575 1574 1571 1569 1568 1566 1565 1563 1561 1560 1558
1530 1536 1539 1542 1544 1547 1552 1554 1558 1560 1562 1564 1567 1570 1572 1574 1574 1575 1576 1576 1576 1576 1576 1578 1577 1578 1577 1577 1577 1577 1576 1573 1574 1573 1569 1568 1567 1565 1563 1561 1559 1558 1556
1534 1538 1540 1544 1547 1550 1553 1554 1558 1562 1563 1566 1570 1572 1574 1576 1576 1576 1577 1576 1576 1576 1576 1577 1577 1578 1576 1576 1576 1575 1574 1572 1571 1570 1568 1565 1564 1562 1560 1559 1556 1554 1552
1536 1539 1543 1545 1549 1553 1554 1557 1561 1563 1564 1568 1572 1573 1574 1576 1577 1577 1576 1576 1576 1576 1576 1576 1576 1576 1576 1574 1574 1573 1571 1570 1569 1567 1565 1563 1561 1558 1557 1554 1553 1550 1548
1536 1539 1541 1546 1549 1554 1556 1560 1561 1564 1567 1569 1572 1573 1572 1573 1574 1575 1574 1575 1576 1577 1577 1576 1576 1574 1574 1573 1573 1571 1570 1568 1566 1564 1561 1559 1558 1556 1554 1552 1550 1547 1546
1536 1538 1542 1546 1550 1556 1558 1558 1560 1563 1565 1568 1570 1570 1571 1570 1572 1572 1574 1574 1573 1573 1572 1573 1572 1572 1571 1569 1570 1569 1567 1565 1563 1561 1559 1556 1554 1552 1550 1547 1547 1545 1542
1537 1539 1543 1548 1552 1555 1554 1557 1557 1559 1562 1565 1565 1567 1568 1569 1570 1569 1570 1568 1570 1571 1570 1571 1571 1568 1568 1566 1565 1564 1563 1562 1559 1558 1556 1553 1551 1549 1547 1545 1543 1542 1539
1538 1541 1545 1547 1549 1550 1551 1552 1557 1560 1562 1564 1564 1565 1565 1566 1567 1567 1567 1567 1568 1570 1569 1568 1568 1566 1566 1562 1561 1560 1560 1557 1554 1555 1553 1550 1548 1545 1543 1542 1540 1538 1537
1538 1542 1545 1546 1546 1547 1552 1556 1557 1559 1559 1561 1559 1562 1561 1564 1565 1566 1566 1567 1567 1568 1566 1565 1565 1563 1561 1559 1558 1558 1556 1552 1552 1551 1550 1548 1546 1544 1541 1540 1538 1536 1535
1536 1540 1543 1544 1544 1548 1552 1554 1556 1557 1557 1557 1557 1560 1562 1562 1564 1566 1566 1566 1567 1565 1563 1563 1562 1560 1558 1557 1555 1554 1551 1549 1548 1547 1547 1544 1543 1540 1539 1537 1535 1534 1533
1534 1536 1542 1542 1545 1548 1550 1552 1553 1554 1555 1556 1557 1560 1560 1561 1564 1565 1564 1564 1564 1563 1561 1561 1560 1557 1557 1554 1552 1550 1548 1547 1545 1545 1542 1541 1541 1537 1536 1534 1532 1531 1530
1532 1533 1536 1539 1544 1546 1547 1549 1550 1551 1553 1554 1556 1558 1558 1560 1563 1565 1564 1563 1562 1560 1560 1560 1557 1555 1553 1551 1548 1545 1542 1542 1542 1542 1538 1535 1534 1532 1531 1532 1529 1528 1525
1530 1530 1533 1539 1541 1544 1547 1548 1548 1550 1552 1554 1555 1557 1559 1561 1562 1562 1561 1561 1559 1559 1559 1557 1555 1552 1550 1549 1546 1542 1536 1536 1537 1534 1532 1530 1530 1528 1528 1527 1526 1524 1521
1527 1528 1533 1537 1539 1542 1547 1547 1549 1551 1553 1555 1556 1557 1558 1559 1560 1560 1559 1558 1557 1556 1555 1555 1553 1550 1546 1545 1545 1543 1537 1533 1530 1530 1529 1528 1527 1525 1524 1524 1523 1520 1519
1527 1529 1532 1534 1537 1542 1544 1546 1548 1550 1552 1554 1555 1556 1556 1557 1558 1558 1557 1556 1555 1554 1552 1551 1550 1548 1545 1542 1540 1540 1538 1534 1528 1522 1524 1524 1524 1521 1520 1520 1519 1517 1516
1526 1528 1530 1534 1538 1541 1545 1546 1548 1550 1551 1552 1553 1554 1555 1555 1554 1554 1554 1553 1552 1551 1550 1548 1546 1544 1542 1539 1536 1534 1532 1529 1527 1525 1518 1519 1518 1518 1517 1516 1515 1513 1512
1524 1528 1530 1534 1537 1539 1543 1545 1546 1548 1549 1549 1551 1552 1553 1554 1554 1554 1552 1550 1548 1547 1545 1543 1541 1539 1537 1534 1532 1529 1527 1525 1522 1521 1518 1515 1513 1512 1512 1513 1511 1509 1508
Wind_Speed
21 24 22 21 21 21 20 18 17 15 13 11 10 9 8 8 7 7 7 8 9 9 9 9 10 10 10 10 10 11 11 11 11 10 10 10 9 8 7 7 8 13 11
23 25 22 21 21 21 20 18 16 14 12 10 9 7 7 6 6 6 8 9 9 10 11 11 11 12 12 13 13 13 14 16 15 11 10 9 9 7 7 8 10 12 12
24 26 24 22 22 21 19 17 14 12 10 9 7 6 6 6 6 7 9 9 10 10 10 10 11 12 12 13 13 13 15 17 16 10 7 3 10 10 8 8 11 12 11
25 27 24 22 22 21 18 15 12 11 10 8 6 5 5 5 6 7 8 9 9 10 10 11 12 13 14 14 13 13 15 16 16 16 16 13 12 12 10 10 11 11 11
21 26 24 22 21 19 16 14 12 11 9 7 6 5 5 6 7 7 8 8 9 10 11 12 14 15 16 17 17 15 16 17 16 13 4 5 12 12 11 10 11 11 10
22 22 23 20 20 17 16 13 11 10 9 7 7 6 6 6 7 7 7 8 9 11 12 12 14 15 17 18 19 19 15 16 17 11 6 8 13 12 13 12 11 10 10
23 21 20 18 18 15 14 13 12 10 8 7 7 7 7 7 7 7 7 8 10 11 12 12 13 14 15 15 16 17 16 17 16 13 10 10 15 15 16 15 14 13 11
26 20 19 18 17 15 14 12 11 10 9 8 8 7 8 8 8 8 8 9 9 10 11 11 11 12 12 13 13 15 16 14 13 13 8 9 17 18 18 18 17 16 15
21 19 19 18 17 14 12 12 11 10 10 9 9 9 8 8 9 9 7 7 7 8 8 8 8 9 10 12 12 12 13 12 11 15 14 15 15 19 19 19 19 18 17
22 19 16 18 16 14 12 12 11 11 10 10 11 10 9 9 9 7 6 5 5 6 6 7 8 9 11 12 15 15 9 9 14 12 16 18 20 22 24 22 20 19 18
23 20 15 14 14 13 13 13 11 11 11 12 12 13 10 11 9 6 9 7 5 5 7 9 11 11 9 11 11 13 9 10 11 12 16 20 22 24 26 24 24 24 21
23 17 20 15 13 12 13 13 13 13 12 11 12 12 8 5 3 5 7 10 8 8 7 10 12 8 5 4 8 11 13 15 10 10 17 20 24 27 28 28 28 26 24
23 19 20 20 18 14 13 12 13 13 10 8 8 7 5 4 3 4 4 7 7 9 7 8 10 7 14 14 15 16 18 19 13 12 17 22 24 26 30 29 28 23 22
21 19 19 23 20 18 18 15 11 9 8 5 7 9 7 8 6 6 3 3 5 2 7 5 5 9 7 11 13 16 17 18 19 19 17 21 24 26 29 28 25 21 20
20 16 17 23 19 20 16 18 16 18 11 8 5 4 5 6 4 5 6 3 5 7 5 8 10 12 15 15 15 16 20 21 20 20 19 23 22 25 23 25 25 23 22
20 19 18 19 23 19 19 17 17 17 14 11 6 5 5 6 8 3 4 7 7 13 12 13 14 15 16 16 17 17 19 19 19 17 19 22 23 22 21 21 24 25 24
19 21 21 21 21 22 22 23 18 12 5 4 2 4 5 6 8 10 9 10 10 12 13 14 15 16 18 18 18 17 16 21 20 19 22 20 23 18 19 22 20 26 29
21 21 21 22 21 22 18 15 12 7 7 9 2 4 1 2 3 6 6 7 9 11 10 15 17 19 18 17 17 17 19 23 22 18 20 18 16 19 19 21 20 24 26
22 22 22 22 24 18 13 12 12 11 16 12 10 4 1 1 2 6 7 7 6 7 12 14 19 18 18 18 17 18 22 23 19 21 22 21 18 18 16 19 19 21 19
21 24 19 24 21 16 14 14 14 13 17 21 12 5 2 2 2 4 9 10 8 4 10 16 15 17 16 17 20 20 19 20 18 18 18 15 16 16 15 18 23 19 15
20 22 22 21 18 15 12 12 11 12 10 12 11 7 1 1 4 3 6 5 10 9 11 12 15 18 17 20 21 27 24 19 17 15 16 12 11 15 16 17 18 20 22
22 24 23 20 14 11 7 7 8 12 10 6 5 5 8 6 3 5 7 5 9 13 12 14 18 19 21 16 25 26 27 28 16 17 21 24 23 24 24 22 23 21 18
23 24 18 17 14 15 14 12 12 12 14 14 10 6 8 4 5 4 7 11 14 16 14 15 16 17 23 27 21 20 24 17 28 25 25 28 28 27 25 18 18 19 22
23 21 16 18 14 16 16 16 17 17 11 9 7 8 9 9 9 8 10 13 15 14 15 17 19 24 23 22 23 27 30 26 25 27 19 24 20 21 23 22 24 22 23
19 20 19 20 19 19 18 16 15 10 16 15 12 11 8 9 12 11 12 13 12 13 15 20 20 23 26 26 24 24 26 25 27 23 25 20 26 24 23 22 23 23 23
19 18 24 21 21 19 18 15 14 15 11 9 10 9 7 8 7 9 9 14 16 18 19 22 25 25 25 25 29 29 27 22 23 20 22 24 23 25 18 18 22 23 25
Wind_Direction
163 158 147 140 138 139 137 130 126 122 119 117 107 105 96 85 75 69 61 51 47 47 48 44 40 37 37 37 35 32 31 31 41 47 38 47 43 16 36 49 13 16 14
154 153 147 141 138 136 134 132 128 124 123 117 114 107 93 79 69 64 61 59 58 57 55 53 52 47 45 42 41 41 47 58 69 50 26 44 50 28 9 27 15 14 14
156 152 148 144 139 137 135 130 128 128 126 120 110 96 85 82 77 68 70 72 71 71 67 60 55 50 44 40 41 46 58 76 67 53 22 13 52 35 17 11 15 10 6
160 152 149 146 143 137 134 127 132 130 126 119 108 99 99 89 84 84 82 83 82 74 65 55 48 43 41 39 39 48 68 74 59 60 70 64 31 27 31 16 9 21 6
153 151 150 147 142 138 132 137 138 132 131 127 125 117 104 98 95 96 97 87 75 67 61 57 54 52 52 52 52 58 78 67 50 67 11 338 1 9 12 9 5 4 6
147 148 148 144 141 141 136 142 138 135 137 133 123 116 110 108 106 103 91 79 74 73 70 68 65 64 62 59 58 62 75 64 55 29 29 348 351 2 2 359 357 357 351
144 142 144 150 137 140 140 141 141 140 136 129 127 125 127 121 119 109 93 86 85 80 75 70 67 63 56 50 50 53 64 65 51 16 350 355 14 14 11 10 2 349 339
140 143 144 143 141 144 141 143 141 137 134 133 130 130 128 129 123 106 96 95 87 85 78 69 59 54 48 40 38 37 39 58 48 26 350 350 360 1 360 356 353 353 347
136 162 152 143 142 140 143 144 143 142 138 138 131 133 129 116 105 102 93 91 84 80 69 57 41 28 19 17 12 14 35 30 37 4 339 338 340 352 354 353 349 340 335
147 147 140 146 147 147 151 149 145 142 140 135 132 123 109 105 94 87 81 69 57 47 38 19 3 360 3 14 9 3 34 10 0 2 335 327 325 326 340 339 338 337 328
135 148 149 144 148 151 156 145 144 141 136 130 123 103 94 60 42 64 28 19 11 9 3 352 351 360 24 356 350 356 358 312 3 340 316 317 316 315 321 327 326 326 321
135 131 131 131 115 123 144 141 139 126 117 109 117 98 104 101 108 348 13 6 8 2 1 9 2 5 347 322 330 304 309 321 340 320 312 310 311 313 314 318 319 317 313
141 143 143 143 131 147 129 112 118 114 114 122 131 94 143 171 162 337 345 326 16 4 13 2 355 309 305 326 327 316 321 325 328 307 297 310 311 311 312 315 317 313 310
147 148 157 152 147 160 136 133 113 133 129 124 170 163 189 193 217 196 246 21 1 264 332 300 294 314 315 308 330 315 319 320 312 316 310 302 306 310 313 315 318 313 309
143 155 149 149 149 139 135 143 152 146 160 169 180 201 213 225 231 299 285 263 258 259 253 255 263 287 305 308 305 315 313 306 307 313 309 304 303 313 315 316 316 315 312
147 149 152 152 142 149 153 161 169 169 181 186 196 227 252 261 271 261 198 186 242 259 276 292 305 317 319 316 305 298 300 310 308 303 306 302 304 308 314 317 319 318 314
157 158 152 141 155 167 169 180 175 177 177 202 207 298 296 255 268 261 235 263 260 285 305 310 313 309 310 314 310 309 303 299 290 302 307 298 304 294 303 313 314 317 318
157 152 152 161 173 186 172 145 133 154 253 190 256 321 37 193 238 261 277 288 291 313 328 317 314 316 322 321 321 324 315 301 315 313 301 291 301 285 304 304 315 319 316
166 162 168 175 189 178 171 189 200 243 220 229 302 304 148 44 298 287 291 303 317 304 304 303 313 327 326 327 322 313 306 306 310 295 301 303 295 295 286 300 300 307 324
171 183 176 189 199 188 204 224 235 236 251 246 269 222 240 270 288 43 337 318 334 348 315 319 324 323 320 314 313 313 310 314 314 317 331 302 291 289 301 302 316 321 310
184 194 200 202 202 196 208 220 239 207 199 195 195 207 45 323 276 229 218 320 314 327 320 315 310 318 324 325 318 321 320 323 305 310 312 314 315 305 306 314 319 314 304
187 203 212 204 203 174 179 203 176 178 167 163 195 184 204 229 254 317 303 286 286 309 318 303 308 323 322 318 320 322 320 315 312 294 298 307 311 310 310 302 302 307 311
183 198 205 198 186 150 180 167 151 139 163 182 217 218 214 262 297 305 296 297 298 302 305 310 319 314 308 308 317 308 325 313 317 309 295 290 298 308 310 323 309 305 315
207 210 192 167 159 174 183 166 170 174 186 195 248 211 235 272 276 269 274 290 299 307 314 305 299 300 306 306 298 290 290 297 311 313 307 299 296 301 297 299 315 309 308
192 174 164 168 173 183 169 183 184 196 201 204 205 216 230 268 276 282 296 302 299 294 300 299 297 295 296 299 297 299 295 289 289 293 305 304 295 293 294 291 304 308 308
170 179 172 171 176 182 181 184 191 207 186 192 216 224 234 266 241 289 264 265 273 286 293 289 291 293 296 294 294 294 291 288 290 290 288 295 299 299 303 303 301 299 304